Powrót do katalogu

COSMOS 1288

AktywnyNawigacjaLEO
NORAD 12637·PAYLOAD·🇷🇺 Russia

Wystrzelony Aug 6, 1981 z Plesetsk Cosmodrome

Loading…

Następne Przeloty (najbliższe 24 godziny)

TLE

ŚwieżeSource: Space-Track

Epoka: Sep 14, 2026, 13:37 UTC

1 12637U 81074B   26257.56798962  .00000001  00000-0  11104-3 0  9994
2 12637  74.0375 350.4395 0017208 141.2604 232.8966 12.46713940 52798

Śledź COSMOS 1288 w czasie rzeczywistym z AllMySat

Download on the App Store